[[{"header":{"parameterUnit":"m.s-1","parameterCategory":1,"la1":30.2991,"la2":30.254,"lo1":-89.0895,"lo2":-89.0444,"dy":0.0017,"dx":0.0017,"nx":28,"ny":28,"refTime":"2023-08-14T03:00:00:Z","depth":0,"parameterNumber":2,"parameterNumberName":"U-component_of_WINDS"},"data":[0,0,0,0,0,0,0,0,0,0,0,0,0,0,0,0,0,0,0,0,0,0,0,0,0,0,0,0,0,0,0,0,0,0,0,0,0,0,0,0,0,0,0,0,0,0,0,0,0,0,0,0,0,0,0,0,0,0,3.868,3.8681,0,3.8769,3.877,3.8771,3.872,3.8717,3.8715,3.8712,3.8808,3.8813,3.8818,0,0,0,0,0,0,0,0,0,0,0,0,0,3.847,3.8474,3.868,3.8681,3.8682,3.8769,3.877,3.8771,3.872,3.8717,3.8714,3.8711,3.8807,3.8813,3.8818,0,0,0,0,0,0,0,0,0,0,0,0,0,3.8561,3.8476,3.8679,3.8667,3.8666,3.8769,3.877,3.8772,3.8721,3.8717,3.8713,3.871,3.8805,3.8812,3.8819,3.8941,0,0,3.8842,3.8845,0,0,0,0,0,0,0,0,3.8556,3.8569,3.8667,3.8668,3.8668,3.8729,3.8732,3.8829,3.8722,3.87,3.8712,3.8708,3.8785,3.8794,3.8819,3.8945,3.8949,3.8842,3.8847,3.885,3.8852,0,0,0,0,0,0,0,3.855,3.8564,3.8715,3.8669,3.8669,3.8658,3.8667,3.875,3.8763,3.8702,3.8698,3.8709,3.8785,3.8812,3.8821,3.8951,3.8842,3.8849,3.8853,3.8856,3.9184,3.9188,0,0,0,0,0,0,3.8543,3.856,3.8712,3.8718,3.8601,3.8665,3.8675,3.8713,3.8762,3.8766,3.8713,3.8707,3.8802,3.8813,3.8824,3.8972,3.885,3.8857,3.8861,3.918,3.9185,3.919,0,0,0,0,0,0,3.8539,3.8557,3.8709,3.8638,3.8656,3.8673,3.8716,3.8717,3.8745,3.877,3.8773,3.8738,3.8799,3.8814,3.8913,3.8975,3.886,3.8867,3.9175,3.9181,3.9187,3.9267,0,0,0,0,0,0,3.8533,3.8556,3.8601,3.8639,3.866,3.8794,3.872,3.8722,3.8757,3.875,3.8795,3.8798,3.8797,3.8902,3.892,3.8983,3.8873,3.9169,3.9178,3.9185,3.9259,3.9275,3.9289,0,0,0,0,0,3.8526,3.862,3.8603,3.8622,3.8716,3.8797,3.8809,3.8805,3.8762,3.8808,3.8825,3.8797,3.8965,3.8912,3.8932,3.8998,3.9165,3.9175,3.9185,3.9252,3.9272,3.9289,0,0,0,0,0,0,3.8589,3.8625,3.8607,3.8715,3.8754,3.8788,3.8846,3.8826,3.8878,3.887,3.8863,3.8874,3.8977,3.8997,3.8938,3.912,3.9059,3.9073,3.9103,3.9122,3.9137,3.9131,3.8879,0,0,0,0,0,3.8616,3.8677,3.8705,3.8799,3.8819,3.883,3.8865,3.8858,3.8898,3.8914,3.8938,3.8979,3.9042,3.9083,3.9141,3.9261,3.9272,3.9317,3.9332,3.9344,3.9357,3.9425,3.9446,3.9221,3.9221,3.9221,0,0,3.8672,3.8698,3.8738,3.8812,3.8841,3.8907,3.8843,3.8915,3.8965,3.8925,3.902,3.904,3.9085,3.9196,3.9246,3.9216,3.9421,3.9356,3.9366,3.9372,3.9437,3.9458,3.9477,3.9228,3.9227,3.9226,0,0,3.8807,3.8832,3.8914,3.8945,3.8989,3.8996,3.9016,3.9054,3.9065,3.916,3.9133,3.9193,3.9299,3.9334,3.9365,3.9517,3.9494,3.9536,3.9616,3.9682,3.97,3.9716,3.9772,3.9792,3.9548,3.9549,3.9549,0,3.8871,3.8967,3.8959,3.9034,3.9069,3.9035,3.912,3.915,3.9212,3.9238,3.9203,3.9338,3.9367,3.9486,3.9523,3.9549,3.9574,3.9531,3.9698,3.9714,3.9728,3.9782,3.9803,3.9554,3.9553,3.9553,3.9552,0,3.9045,3.9113,3.9174,3.9234,3.9276,3.9355,3.9361,3.9405,3.9395,3.9406,3.9505,3.9538,3.9604,3.9632,3.9623,3.9752,3.9732,3.9698,3.9636,3.9755,3.9805,3.9826,3.9561,3.9559,3.9558,3.9556,0,0,3.9223,3.9278,3.9301,3.9329,3.9377,3.943,3.9509,3.9572,3.9611,3.9655,3.9723,3.9815,3.9785,3.9821,3.9816,3.9874,3.9996,3.9833,3.9834,3.9864,4.0142,4.0169,4.0192,3.998,3.9984,3.9987,4.0139,0,3.9363,3.9499,3.9495,3.9623,3.9687,3.9658,3.9727,3.9765,3.9779,3.9837,3.9852,3.9918,3.9871,3.9894,3.9949,3.9969,4.0052,3.9957,4.0046,4.0049,4.0037,4.0218,4.0246,4.0388,4.0158,4.0162,4.0164,0,3.9544,3.9594,3.9729,3.9769,3.9796,3.9858,3.9917,3.9972,4.0016,4.0022,4.0063,4.005,4.0133,4.0069,4.0185,4.0121,4.0157,4.0172,4.0178,4.0187,4.0115,4.0235,4.0433,4.0455,4.0195,4.0192,4.019,0,3.9663,3.9764,3.9858,3.9883,3.9932,3.9977,4.0,4.0039,4.0079,4.0131,4.0157,4.0219,4.0253,4.0303,4.0308,4.026,4.0426,4.0361,4.0435,4.0436,4.0472,4.047,4.0681,4.0493,4.0493,4.0492,4.0492,0,3.9821,3.9905,3.9913,3.9971,4.0065,4.0061,4.0155,4.0174,4.021,4.0273,4.0251,4.0312,4.0313,4.0376,4.038,4.0477,4.0493,4.0502,4.0502,4.0505,4.0504,4.0529,4.052,4.0498,4.0497,4.0495,4.0494,0,3.997,3.9978,4.0079,4.0118,4.0129,4.0197,4.0231,4.0288,4.0299,4.038,4.0399,4.0418,4.049,4.05,4.0585,4.0588,4.0705,4.0695,4.069,4.0689,4.0764,4.0758,4.1,4.1033,4.0821,4.0823,4.0825,0,4.0071,4.0135,4.018,4.0221,4.0246,4.0311,4.0351,4.035,4.0393,4.0449,4.05,4.057,4.0626,4.0744,4.0767,4.0832,4.0824,4.0905,4.0834,4.0835,4.0828,4.0825,4.0833,4.0919,4.0921,4.0923,4.0924,0,4.0251,4.0252,4.0309,4.037,4.0418,4.0466,4.0511,4.0546,4.0551,4.0601,4.0674,4.0718,4.0805,4.0876,4.0941,4.0967,4.0948,4.0946,4.0967,4.0971,4.0967,4.0973,4.073,4.0941,4.0939,4.0938,4.0937,4.0937,4.038,4.0437,4.0478,4.0544,4.0578,4.0621,4.0677,4.0695,4.0756,4.0826,4.0822,4.0904,4.0949,4.1034,4.1065,4.113,4.1104,4.1134,4.1142,4.115,4.1159,4.0955,4.1142,4.1142,4.1141,4.1141,4.114,0,4.0561,4.0586,4.0647,4.071,4.0763,4.0739,4.0788,4.0834,4.0906,4.0949,4.1005,4.1091,4.116,4.1188,4.1257,4.1304,4.1298,4.1323,4.132,4.1327,4.1177,4.1153,4.1327,4.1327,4.1327,4.1327,4.1327,4.1327,4.0661,4.0756,4.0763,4.0875,4.09,4.0979,4.101,4.1051,4.1085,4.1181,4.1238,4.1256,4.1294,4.1366,4.1429,4.1436,4.1464,4.1493,4.1496,4.1356,4.1337,4.1319,4.1297,4.1498,4.1499,4.1641,4.1643,4.1644]},{"header":{"parameterUnit":"m.s-1","parameterCategory":1,"la1":30.2991,"la2":30.254,"lo1":-89.0895,"lo2":-89.0444,"dy":0.0017,"dx":0.0017,"nx":28,"ny":28,"refTime":"2023-08-14T03:00:00:Z","depth":0,"parameterNumber":3,"parameterNumberName":"V-component_of_WINDS"},"data":[0,0,0,0,0,0,0,0,0,0,0,0,0,0,0,0,0,0,0,0,0,0,0,0,0,0,0,0,0,0,0,0,0,0,0,0,0,0,0,0,0,0,0,0,0,0,0,0,0,0,0,0,0,0,0,0,0,0,-0.2697,-0.2696,0,-0.2618,-0.2617,-0.2616,-0.2606,-0.2607,-0.2608,-0.2609,-0.2525,-0.2522,-0.2519,0,0,0,0,0,0,0,0,0,0,0,0,0,-0.2836,-0.2834,-0.2697,-0.2696,-0.2695,-0.2618,-0.2617,-0.2616,-0.2606,-0.2607,-0.2608,-0.2609,-0.2526,-0.2522,-0.2519,0,0,0,0,0,0,0,0,0,0,0,0,0,-0.2768,-0.2833,-0.2697,-0.2681,-0.2679,-0.2619,-0.2617,-0.2616,-0.2606,-0.2607,-0.2608,-0.261,-0.2527,-0.2523,-0.2518,-0.2468,0,0,-0.2505,-0.2503,0,0,0,0,0,0,0,0,-0.2772,-0.2763,-0.2684,-0.2682,-0.2679,-0.2623,-0.2636,-0.2566,-0.2606,-0.2634,-0.2609,-0.261,-0.2557,-0.255,-0.2532,-0.2464,-0.2461,-0.2504,-0.2502,-0.25,-0.2499,0,0,0,0,0,0,0,-0.2777,-0.2766,-0.2666,-0.2683,-0.268,-0.2677,-0.2668,-0.2622,-0.2589,-0.2631,-0.263,-0.2621,-0.2555,-0.2537,-0.253,-0.2459,-0.2505,-0.2501,-0.2498,-0.2496,-0.2347,-0.2345,0,0,0,0,0,0,-0.2785,-0.277,-0.2668,-0.2663,-0.273,-0.2673,-0.2664,-0.264,-0.259,-0.2583,-0.262,-0.2621,-0.2544,-0.2535,-0.2527,-0.2466,-0.25,-0.2496,-0.2493,-0.2348,-0.2346,-0.2345,0,0,0,0,0,0,-0.2788,-0.2776,-0.2671,-0.2717,-0.2703,-0.267,-0.2643,-0.2638,-0.2619,-0.2582,-0.2576,-0.2608,-0.2544,-0.2534,-0.2483,-0.2463,-0.2494,-0.249,-0.235,-0.2347,-0.2346,-0.2342,0,0,0,0,0,0,-0.2792,-0.2777,-0.2758,-0.2716,-0.2701,-0.2629,-0.2642,-0.2636,-0.2612,-0.2612,-0.2568,-0.2562,-0.2544,-0.249,-0.2479,-0.2457,-0.2486,-0.2351,-0.2349,-0.2346,-0.2343,-0.234,-0.2337,0,0,0,0,0,-0.2797,-0.2759,-0.2757,-0.2745,-0.2676,-0.2628,-0.2619,-0.2601,-0.261,-0.2591,-0.2567,-0.2563,-0.2467,-0.2485,-0.2472,-0.2449,-0.2352,-0.2349,-0.2346,-0.2345,-0.234,-0.2337,0,0,0,0,0,0,-0.2798,-0.2753,-0.2751,-0.2698,-0.2667,-0.2627,-0.2601,-0.2596,-0.2561,-0.2562,-0.254,-0.253,-0.2481,-0.246,-0.2481,-0.2398,-0.241,-0.2405,-0.2414,-0.2409,-0.2406,-0.2411,-0.2483,0,0,0,0,0,-0.2792,-0.2758,-0.272,-0.2678,-0.2662,-0.2635,-0.2613,-0.2602,-0.2568,-0.2554,-0.2527,-0.2493,-0.2456,-0.2431,-0.2394,-0.2341,-0.2331,-0.2318,-0.2315,-0.2312,-0.2307,-0.2278,-0.2272,-0.2335,-0.2335,-0.2335,0,0,-0.278,-0.2751,-0.273,-0.2677,-0.2652,-0.2616,-0.2623,-0.2585,-0.2558,-0.2548,-0.2499,-0.2478,-0.2439,-0.2388,-0.2363,-0.2368,-0.2288,-0.2308,-0.2307,-0.2303,-0.2274,-0.2268,-0.2263,-0.2333,-0.2333,-0.2334,0,0,-0.2738,-0.2713,-0.2676,-0.265,-0.2612,-0.2594,-0.2586,-0.2546,-0.2532,-0.2483,-0.2475,-0.2442,-0.2377,-0.2351,-0.2328,-0.2279,-0.2274,-0.2267,-0.2249,-0.222,-0.2215,-0.2211,-0.2193,-0.2187,-0.2263,-0.2263,-0.2262,0,-0.2727,-0.2674,-0.2656,-0.2618,-0.2595,-0.2587,-0.2548,-0.2524,-0.2475,-0.2459,-0.2466,-0.2386,-0.2359,-0.2301,-0.2289,-0.2271,-0.226,-0.2272,-0.2218,-0.2213,-0.2208,-0.2191,-0.2185,-0.2262,-0.2262,-0.2262,-0.2262,0,-0.2662,-0.2625,-0.2599,-0.2554,-0.2528,-0.2489,-0.2466,-0.2441,-0.2433,-0.2414,-0.2364,-0.2332,-0.2289,-0.2275,-0.2265,-0.2215,-0.222,-0.2222,-0.2234,-0.2202,-0.2186,-0.2179,-0.2261,-0.2261,-0.2262,-0.2262,0,0,-0.2618,-0.2565,-0.2556,-0.2536,-0.2494,-0.2464,-0.2426,-0.2385,-0.2364,-0.2331,-0.2298,-0.2245,-0.2247,-0.2222,-0.221,-0.2185,-0.2148,-0.219,-0.2189,-0.2183,-0.2091,-0.2089,-0.2082,-0.2145,-0.2143,-0.2142,-0.2094,0,-0.2572,-0.2504,-0.2488,-0.243,-0.2395,-0.2387,-0.2354,-0.2324,-0.2306,-0.2273,-0.2252,-0.2215,-0.2221,-0.2206,-0.2181,-0.2157,-0.2129,-0.2161,-0.2113,-0.2111,-0.2123,-0.2073,-0.207,-0.2027,-0.2087,-0.2086,-0.2085,0,-0.2509,-0.2476,-0.2415,-0.2379,-0.2363,-0.2334,-0.2295,-0.2265,-0.2231,-0.2219,-0.2192,-0.2182,-0.2141,-0.2156,-0.2099,-0.2122,-0.2101,-0.2087,-0.2085,-0.2079,-0.2096,-0.2066,-0.2012,-0.2005,-0.2075,-0.2076,-0.2077,0,-0.2484,-0.2424,-0.238,-0.2363,-0.2319,-0.2298,-0.2279,-0.2246,-0.2223,-0.2189,-0.2174,-0.2136,-0.2114,-0.2085,-0.2065,-0.2077,-0.2009,-0.2022,-0.1998,-0.1999,-0.1983,-0.1985,-0.1926,-0.1971,-0.1971,-0.1971,-0.1971,0,-0.2434,-0.2397,-0.2368,-0.2341,-0.2299,-0.228,-0.2239,-0.2219,-0.2191,-0.2159,-0.2149,-0.212,-0.2095,-0.2062,-0.2046,-0.2002,-0.1992,-0.1981,-0.1977,-0.1982,-0.1983,-0.1968,-0.197,-0.1969,-0.197,-0.197,-0.197,0,-0.2398,-0.2377,-0.2329,-0.2292,-0.2282,-0.2252,-0.222,-0.2193,-0.2175,-0.2135,-0.2125,-0.2096,-0.2056,-0.2034,-0.1984,-0.1973,-0.1924,-0.1921,-0.1935,-0.1934,-0.1911,-0.1913,-0.1839,-0.1828,-0.1881,-0.1881,-0.188,0,-0.2367,-0.2339,-0.2299,-0.2278,-0.2259,-0.2224,-0.2201,-0.2182,-0.2158,-0.2118,-0.2096,-0.2056,-0.2023,-0.1961,-0.1935,-0.1897,-0.1893,-0.187,-0.1887,-0.1893,-0.1892,-0.1894,-0.1891,-0.1867,-0.1866,-0.1866,-0.1865,0,-0.2316,-0.2307,-0.2274,-0.2238,-0.2211,-0.2182,-0.2152,-0.2135,-0.2111,-0.2084,-0.2045,-0.2019,-0.1969,-0.193,-0.189,-0.1869,-0.1863,-0.1861,-0.1853,-0.1857,-0.1866,-0.1861,-0.1927,-0.1862,-0.1862,-0.1863,-0.1863,-0.1863,-0.2281,-0.2256,-0.2224,-0.2188,-0.2165,-0.2138,-0.2111,-0.209,-0.2057,-0.2015,-0.2006,-0.1964,-0.1931,-0.1877,-0.1855,-0.1822,-0.1826,-0.1815,-0.1812,-0.1809,-0.1809,-0.1872,-0.1814,-0.1815,-0.1815,-0.1815,-0.1815,0,-0.2229,-0.2209,-0.2176,-0.2136,-0.2108,-0.2106,-0.2073,-0.205,-0.2013,-0.1984,-0.1952,-0.1907,-0.1869,-0.1841,-0.1802,-0.178,-0.1777,-0.1771,-0.1772,-0.1767,-0.1807,-0.1818,-0.1774,-0.1774,-0.1774,-0.1774,-0.1774,-0.1774,-0.2198,-0.2155,-0.2143,-0.2088,-0.2068,-0.2028,-0.201,-0.1984,-0.1961,-0.1911,-0.188,-0.1862,-0.1833,-0.1792,-0.1757,-0.175,-0.1736,-0.173,-0.1722,-0.176,-0.1764,-0.1768,-0.1778,-0.1727,-0.1727,-0.1685,-0.1684,-0.1684]}]]